SAUDICOMSAT 2 (28370 NORAD) Tracking and Keplerian Element Data

This shows tracking and keplerian element data for the satellite.

Feedback or suggestion? Click here.




ElementValue
Catalog28370
NameSAUDICOMSAT 2
Epoch Orbit13412
Epoch Day353.90700847
Epoch Year2025
RAAN356.0771
Inclination98.6663
Eccentricity0.0056658
Argument of Perigee82.7366
Mean Anonmoly278.0263
Mean Motion14.49817986
Decay Rate2.39E-06
L11 28370U 04025E 25353.90700847 .00000239 00000+0 73236-4 0 9992
L22 28370 98.6663 356.0771 0056658 82.7366 278.0263 14.49817986134127



Live tracking and technical data element details for SAUDICOMSAT 2 (NORAD 28370). SAUDICOMSAT 2 can be tracked NOW for your location showing map with azimuth and elevation plus other details from your city location.







IsCatalogInMostPopularTable: catalog: 28370, numindb: 347
Update: records affected: 1



GetName: 28370 SAUDICOMSAT 2

Hit Count: updated at: Thu, 21 May 2026 10:35:32 GMT